STARLINK-1278, 45408

Orbit data source: Space-Track

STARLINK-1278, 45408 is a payload satellite owned by SpaceX/Seattle (US) in LEO that was launched on Wed, 18 Mar 2020 UTC via an FALCON 9 launch vehicle from the Air Force Eastern Test Range (AFETR). Payload-class satellites include a variety of spacecraft equipped with specific instruments for various scientific and technological missions. These include communications satellites like Starlink; space stations such as the ISS; scientific satellites like the Hubble; Earth observation satellites from companies like Planet Labs, Umbra, and HawkEye 360; GPS; miniature CubeSats for education and research; and military/defense satellites.

Loading next visibility...
Identifier
45408, 2020-019BA
Orbit
LEO
Country
Flag of USUS
Related business
Manufacturer
SpaceX/Seattle
Mission
Partially operational Commercial Communications
Bus & Motor
STARLINK, Unknown motor
Mass
260 kg wet, ~248 kg dry
Launch date (UTC)
2020-03-18 (6 years ago)
Launch vehicle
FALCON 9
Launch site
Air Force Eastern Test Range (AFETR)
Object type
Payload
Rocket body
Debris
Shape & HBR
Box + 1 Pan, 10.1 m
Radar Cross Section
13.562 m², Large (>1 m²)

Expand to show TLE details & history
Last TLE update: 1 day ago

TLE from 1 day ago
0 STARLINK-1278
1 45408U 20019BA  26169.80175805  .00053094  00000-0  42732-3 0  9993
2 45408  53.0396 354.7481 0004630 112.5667 247.5840 15.70418626345789
Epoch: 2026-06-18T19:14Z
TLE epoch observation values (Epoch: 2026-06-18T19:14:31.895Z)
Latitude
-0.00002°
Longitude
159.07532°
Altitude
359.792 km
Speed
7.694 km/s
True Right ascension
23h 38m 59s
True Declination
0° 00' 00"
Sunlit
Object was in daylight at epoch
Visualization orbit readout
Latitude
Unknown
Longitude
Unknown
Altitude
Unknown
Speed
Unknown
Apparent Right ascension
Unknown
Apparent Declination
Unknown
Sunlit
N/A
Visualization observer readout
Local Sidereal Time
07:58:54
Azimuth
Unknown
Elevation
Unknown
Doppler factor
Unknown
Orbital elements
Apogee altitude
361.099 km
Perigee altitude
354.861 km
Semi-major axis
6,736.117 km
Eccentricity
0.00046
Inclination
53.0396°
RAAN
354.7481°
Arg. of periapsis
112.5667°
True anomaly
247.53496°
Mean anomaly
247.584°
Eccentric anomaly
247.55948°
Mean motion
3.9258 °/min
Orbital period
91.7 mins
BSTAR
0.00042732
Loading maneuver chart data...
Computing Atmospheric mass density...

Documentation

Showing up to 5 results
|